Find Starlink 1279

NORAD ID: 45360 Int'l Des: 2020-019 Owner: SPXS Country: US Constellation: starlink operational
LEOCIRCULAR

現在のビュー

3D地球を読み込み中...

About Starlink 1279

Starlink 1279 (NORAD 45360) is a starlink constellation satellite (v1.0) launched Mar 18, 2020 by SPXS of US. It operates in LEO, CIRCULAR orbit with a mass of 260.00 kg.

Starlink 1279について

説明を読み込み中...

次回通過

Passes for default location (London). Set your location on the main map for personalized predictions.

高度履歴

Loading altitude history...

軌道要素

1 45360U 20019A 26169.00003472 .00034107 00000-0 18019-3 0 9997
2 45360 53.0358 324.3186 0001802 60.0566 59.7447 15.80311537 5954
Epoch: Jun 18, 2026 • Age: 7 hours

現在のステータス

高度 331.9 km
速度 7.72 km/s
衛星直下点 40.33°N, 13.99°W
打ち上げ日 Mar 18, 2020
運用期間 6.2 years
タイプ internet

技術仕様

分類 Payload
質量 260.00 kg
乾燥質量 248.00 kg
総質量 260.00 kg
長さ 0.20 m
直径 2.80 m
スパン 9.00 m
形状 Box + pan
製造者 SPXS
バスタイプ Starlink
フェーズステータス In Orbit
所有者/国 SPXS/US

Most Searched